Flag for U.S.A. Weather past 2 weeks in Carson City, Nevada, U.S.A.

Now
55 °F

Clear.


Feels Like: 55 °F
Forecast: 42 / 72 °F
Wind: No wind

Location: Reno Tahoe International Airport


UV Index: 5 (Moderate)

Visibility: 10 mi


Pressure: 29.87 "Hg

Humidity: 37%

Dew point: 29 °F

Location of Carson CityLocation

Historic Weather in Carson City

°F

Carson City temperature yesterday

Maximum temperature yesterday: 72 °F (at 2:55 PM)
Minimum temperature yesterday: 47 °F (at 6:55 AM)
Average temperature yesterday: 60 °F

Past Weeks' High & Low Weather Summary

 TemperatureHumidityPressure
High78 °F (Apr 8, 2:55 PM)76% (Apr 5, 5:55 AM)30.28 "Hg (Apr 5, 5:55 AM)
Low28 °F (Apr 3, 6:55 AM)8% (Apr 14, 3:55 PM)29.67 "Hg (Apr 12, 3:55 PM)
Average55 °F34%29.99 "Hg
* Reported Apr 1 11:55 PM — Apr 16 11:55 PM, Carson City, Weather by CustomWeather, © 2014

Note: Actual official high and low records may vary slightly from our data, if they occured in-between our weather recording intervals... More about our weather records

Advertising

Historic Weather Conditions — Data for Previous 24 hours

 ConditionsComfort  
Time TempWeatherWind HumidityBarometerVisibility
11:55 PM
Apr 16
57 °FClear.No wind34%29.87 "Hg10 mi
10:55 PM58 °FClear.3 mph33%29.87 "Hg10 mi
9:55 PM61 °FClear.7 mph26%29.87 "Hg10 mi
8:55 PM63 °FPassing clouds.3 mph24%29.86 "Hg10 mi
7:55 PM67 °FScattered clouds.12 mph20%29.83 "Hg10 mi
6:55 PM69 °FPartly sunny.10 mph19%29.81 "Hg10 mi
5:55 PM71 °FPartly sunny.13 mph17%29.79 "Hg10 mi
4:55 PM72 °FBroken clouds.13 mph17%29.78 "Hg10 mi
3:55 PM71 °FBroken clouds.6 mph17%29.80 "Hg10 mi
2:55 PM72 °FBroken clouds.8 mph17%29.81 "Hg10 mi
1:55 PM68 °FScattered clouds.8 mph19%29.84 "Hg10 mi
12:55 PM67 °FScattered clouds.8 mph20%29.86 "Hg10 mi
11:55 AM64 °FPartly sunny.3 mph21%29.88 "Hg10 mi
10:55 AM62 °FPartly sunny.6 mph21%29.90 "Hg10 mi
9:55 AM58 °FPartly sunny.No wind26%29.91 "Hg10 mi
8:55 AM54 °FPassing clouds.No wind35%29.92 "Hg10 mi
7:55 AM51 °FPassing clouds.3 mph46%29.93 "Hg10 mi
6:55 AM47 °FPassing clouds.6 mph56%29.91 "Hg10 mi
5:55 AM48 °FPassing clouds.6 mph52%29.89 "Hg10 mi
4:55 AM51 °FClear.5 mph44%29.88 "Hg10 mi
3:55 AM49 °FPassing clouds.3 mph41%29.88 "Hg10 mi
2:55 AM54 °FPassing clouds.5 mph27%29.87 "Hg10 mi
1:55 AM55 °FPassing clouds.3 mph29%29.85 "Hg10 mi
Weather by CustomWeather, © 2014

See weather overview